User: anonymous   Login
Location: Unspecified
(0.0000°N, 0.0000°E)
Time: 12:27:44
(UTC+00:00)
Language:

AUBIESAT-1 - Orbit

View from above orbital plane
View from above orbital plane
View from above satellite
View from above satellite

Ground track
Ground track

The orbit data is extracted from the following two-line orbital elements,

1 37854U 11061E   16340.95437934  .00001628  00000-0  96371-4 0  9991
2 37854 101.7019 110.3336 0169809 286.4627  71.7983 15.03224745277894
Epoch (UTC): 05 December 2016 22:54:18
Eccentricity: 0.0169809
inclination: 101.7019°
perigee height: 439 km
apogee height: 675 km
right ascension of ascending node: 110.3336°
argument of perigee: 286.4627°
revolutions per day: 15.03224745
mean anomaly at epoch: 71.7983°
orbit number at epoch: 27789

The dashed part of the orbit path shows where the satellite is in the earth's shadow,  

DLR